EW1689 Weather Reports


Display with metric or nautical units.
time (UTC)temp
F
wind
direction
speed
MPH
gust
MPH
rain 1hr
in
rain 24hr
in
rain mn
in
humidity
%
barometer
mb
20260510015016 94 0.0 3.0 0.00 0.00 0.00 10 1006.2
20260510014016 95 0 1.0 5.0 0.00 0.00 0.00 10 1006.1
20260510013037 95 0.0 4.0 0.00 0.00 0.00 10 1006.3
20260510012017 96 0 1.0 5.0 0.00 0.00 0.00 10 1006.2
20260510011017 96 0 1.0 2.0 0.00 0.00 0.00 10 1006.3
20260510010016 96 0 1.0 4.0 0.00 0.00 0.00 10 1006.3
20260510005017 97 0 1.0 3.0 0.00 0.00 0.00 10 1006.5
20260510004037 97 0 1.0 3.0 0.00 0.00 0.00 10 1006.5
20260510003017 97 0 1.0 6.0 0.00 0.00 0.00 9 1006.4
20260510002016 98 0 1.0 4.0 0.00 0.00 0.00 10 1006.6
20260510001016 98 0 2.0 8.0 0.00 0.00 0.00 10 1006.6
20260510000036 99 0 2.0 6.0 0.00 0.00 0.00 9 1006.7
20260509235018 100 0 2.0 8.0 0.00 0.00 0.00 9 1006.8
20260509234037 100 248 1.0 3.0 0.00 0.00 0.00 9 1006.8
20260509233036 101 270 2.0 5.0 0.00 0.00 0.00 8 1007.0
20260509232016 102 180 2.0 8.0 0.00 0.00 0.00 9 1007.1
20260509231016 102 203 1.0 6.0 0.00 0.00 0.00 9 1007.3
20260509230016 102 270 1.0 4.0 0.00 0.00 0.00 9 1007.4
20260509225016 102 270 2.0 4.0 0.00 0.00 0.00 9 1007.6
20260509224016 103 248 1.0 4.0 0.00 0.00 0.00 9 1007.7
20260509223017 102 203 1.0 6.0 0.00 0.00 0.00 9 1007.9
20260509222016 103 203 2.0 5.0 0.00 0.00 0.00 9 1007.9
20260509221016 102 203 2.0 7.0 0.00 0.00 0.00 9 1008.2
20260509220016 102 180 2.0 5.0 0.00 0.00 0.00 10 1008.3
20260509215017 102 203 2.0 5.0 0.00 0.00 0.00 10 1008.7
20260509214016 102 270 2.0 6.0 0.00 0.00 0.00 10 1008.8
20260509213016 102 270 2.0 5.0 0.00 0.00 0.00 10 1009.0
20260509212016 102 203 2.0 8.0 0.00 0.00 0.00 10 1009.1
20260509211016 101 203 2.0 5.0 0.00 0.00 0.00 11 1009.2
20260509210017 101 203 3.0 7.0 0.00 0.00 0.00 11 1009.3
20260509205016 101 270 1.0 5.0 0.00 0.00 0.00 12 1009.7
20260509204056 101 180 3.0 7.0 0.00 0.00 0.00 11 1009.8
20260509203016 100 225 1.0 3.0 0.00 0.00 0.00 12 1009.9
20260509202016 100 180 1.0 3.0 0.00 0.00 0.00 12 1010.3
20260509201016 99 0 1.0 5.0 0.00 0.00 0.00 13 1010.3
20260509200016 98 0 2.0 7.0 0.00 0.00 0.00 12 1010.5
20260509195016 97 0 2.0 4.0 0.00 0.00 0.00 13 1010.6
20260509194016 97 0 2.0 7.0 0.00 0.00 0.00 13 1010.6
20260509193116 96 0 2.0 7.0 0.00 0.00 0.00 13 1010.7
20260509192059 96 0 2.0 7.0 0.00 0.00 0.00 13 1010.9
20260509191036 96 0 2.0 5.0 0.00 0.00 0.00 13 1011.0
20260509190016 95 0 1.0 6.0 0.00 0.00 0.00 14 1011.0
20260509185016 95 0 2.0 5.0 0.00 0.00 0.00 14 1011.2
20260509184015 95 0 1.0 4.0 0.00 0.00 0.00 15 1011.3
20260509183016 94 0 3.0 7.0 0.00 0.00 0.00 14 1011.5
20260509182015 95 0 2.0 7.0 0.00 0.00 0.00 13 1011.8
20260509181016 95 0 1.0 5.0 0.00 0.00 0.00 15 1011.8
20260509180016 94 0 3.0 8.0 0.00 0.00 0.00 14 1011.9
20260509175016 94 0 3.0 7.0 0.00 0.00 0.00 13 1012.0
20260509174016 93 0 2.0 6.0 0.00 0.00 0.00 14 1012.0
20260509173015 92 0 1.0 5.0 0.00 0.00 0.00 14 1012.0
20260509172035 90 0 2.0 5.0 0.00 0.00 0.00 14 1011.9
20260509171015 89 0 1.0 5.0 0.00 0.00 0.00 17 1011.8
20260509170016 89 0 2.0 5.0 0.00 0.00 0.00 15 1011.8
20260509165015 88 0 1.0 4.0 0.00 0.00 0.00 16 1011.8
20260509164038 87 0 1.0 6.0 0.00 0.00 0.00 17 1011.8
20260509163017 87 0 2.0 5.0 0.00 0.00 0.00 16 1011.8
20260509162017 87 158 2.0 4.0 0.00 0.00 0.00 16 1011.7
20260509161017 87 158 2.0 5.0 0.00 0.00 0.00 17 1011.8
20260509160017 86 90 1.0 3.0 0.00 0.00 0.00 18 1011.8
20260509155038 86 90 1.0 2.0 0.00 0.00 0.00 17 1011.8
20260509154017 85 0.0 2.0 0.00 0.00 0.00 18 1011.7
20260509153017 85 0.0 2.0 0.00 0.00 0.00 19 1011.7
20260509152018 84 90 1.0 3.0 0.00 0.00 0.00 20 1011.7
20260509151017 83 0.0 2.0 0.00 0.00 0.00 22 1011.7
20260509150017 82 0 1.0 3.0 0.00 0.00 0.00 20 1011.6
20260509145037 81 0.0 0.0 0.00 0.00 0.00 20 1011.6
20260509144017 80 0.0 1.0 0.00 0.00 0.00 21 1011.5
20260509143017 81 0 1.0 3.0 0.00 0.00 0.00 20 1011.5
20260509142017 80 0.0 1.0 0.00 0.00 0.00 24 1011.5
20260509141017 78 0.0 1.0 0.00 0.00 0.00 24 1011.3
20260509140017 77 0.0 0.0 0.00 0.00 0.00 24 1011.2
20260509135017 76 0.0 1.0 0.00 0.00 0.00 31 1011.0
20260509134017 74 0.0 1.0 0.00 0.00 0.00 27 1010.8
20260509133017 74 0.0 1.0 0.00 0.00 0.00 25 1010.7
20260509132017 73 0.0 0.0 0.00 0.00 0.00 25 1010.7
20260509131017 73 0.0 0.0 0.00 0.00 0.00 25 1010.6
20260509130017 73 0.0 0.0 0.00 0.00 0.00 25 1010.4
20260509125017 72 0.0 0.0 0.00 0.00 0.00 24 1010.3
20260509124038 73 0.0 0.0 0.00 0.00 0.00 24 1010.2
20260509123016 73 0.0 0.0 0.00 0.00 0.00 24 1010.1
20260509122018 73 0.0 0.0 0.00 0.00 0.00 23 1010.0
20260509121017 73 0.0 0.0 0.00 0.00 0.00 24 1009.9
20260509120016 73 0.0 0.0 0.00 0.00 0.00 24 1009.8
20260509115017 74 0.0 0.0 0.00 0.00 0.00 24 1009.8
20260509114016 74 0.0 0.0 0.00 0.00 0.00 23 1009.6
20260509113017 74 0.0 0.0 0.00 0.00 0.00 23 1009.6
20260509112017 74 0.0 0.0 0.00 0.00 0.00 24 1009.8
20260509111037 74 0.0 0.0 0.00 0.00 0.00 23 1009.8
20260509110037 74 0.0 0.0 0.00 0.00 0.00 23 1009.7
20260509105017 75 0.0 0.0 0.00 0.00 0.00 23 1009.7
20260509104017 75 0.0 0.0 0.00 0.00 0.00 22 1009.6
20260509103036 76 0.0 0.0 0.00 0.00 0.00 22 1009.7
20260509102016 76 0.0 0.0 0.00 0.00 0.00 22 1009.8
20260509101017 76 0.0 0.0 0.00 0.00 0.00 22 1009.8
20260509100016 76 0.0 0.0 0.00 0.00 0.00 21 1009.8
20260509095016 77 0.0 1.0 0.00 0.00 0.00 20 1009.5
20260509094016 77 0.0 1.0 0.00 0.00 0.00 20 1009.5
20260509093016 78 0.0 1.0 0.00 0.00 0.00 20 1009.6
20260509092016 78 0.0 2.0 0.00 0.00 0.00 20 1009.7
20260509091016 78 0.0 0.0 0.00 0.00 0.00 20 1009.7
20260509090016 79 0.0 0.0 0.00 0.00 0.00 20 1009.7
20260509085016 79 0.0 0.0 0.00 0.00 0.00 20 1009.6
20260509084016 79 0.0 0.0 0.00 0.00 0.00 20 1009.8
20260509083017 79 0.0 1.0 0.00 0.00 0.00 19 1009.8
20260509082016 80 0.0 0.0 0.00 0.00 0.00 19 1009.6
20260509081016 81 0.0 0.0 0.00 0.00 0.00 19 1009.7
20260509080016 82 0.0 1.0 0.00 0.00 0.00 18 1009.8
20260509075016 83 0.0 1.0 0.00 0.00 0.00 17 1009.7
20260509074017 83 0 2.0 4.0 0.00 0.00 0.00 17 1009.8
20260509073103 83 0 1.0 2.0 0.00 0.00 0.00 17 1009.8
20260509072016 84 0.0 0.0 0.00 0.00 0.00 16 1009.7
20260509071016 84 0.0 3.0 0.00 0.00 0.00 17 1009.6
20260509070016 84 0.0 2.0 0.00 0.00 0.00 17 1009.7
20260509065015 85 0.0 1.0 0.00 0.00 0.00 16 1009.8
20260509064017 85 0 1.0 3.0 0.00 0.00 0.00 16 1009.8
20260509063056 85 0 1.0 3.0 0.00 0.00 0.00 16 1009.7
20260509062017 85 0 1.0 3.0 0.00 0.00 0.00 16 1009.4
20260509061018 85 0 1.0 3.0 0.00 0.00 0.00 16 1009.3
20260509060018 85 0 1.0 2.0 0.00 0.00 0.00 17 1009.2
20260509055017 85 0 1.0 3.0 0.00 0.00 0.00 17 1009.2
20260509054017 86 0 1.0 3.0 0.00 0.00 0.00 17 1009.2
20260509053017 86 0 1.0 2.0 0.00 0.00 0.00 17 1009.1
20260509052017 86 0.0 2.0 0.00 0.00 0.00 17 1009.1
20260509051017 86 0 1.0 2.0 0.00 0.00 0.00 17 1009.1
20260509050017 86 0 1.0 4.0 0.00 0.00 0.00 17 1009.1
20260509045017 87 0.0 2.0 0.00 0.00 0.00 17 1008.9
20260509044017 87 0.0 2.0 0.00 0.00 0.00 16 1009.0
20260509043037 87 0.0 2.0 0.00 0.00 0.00 16 1008.9
20260509042017 88 0 1.0 2.0 0.00 0.00 0.00 16 1009.0
20260509041017 88 0 1.0 3.0 0.00 0.00 0.00 16 1008.7
20260509040017 88 0.0 3.0 0.00 0.00 0.00 16 1008.5
20260509035017 88 0 1.0 3.0 0.00 0.00 0.00 16 1008.3
20260509034017 88 0 1.0 2.0 0.00 0.00 0.00 15 1008.2
20260509033017 88 0.0 3.0 0.00 0.00 0.00 15 1008.1
20260509032017 89 0.0 2.0 0.00 0.00 0.00 15 1008.0
20260509031017 89 0.0 3.0 0.00 0.00 0.00 14 1007.9
20260509030017 89 0 1.0 3.0 0.00 0.00 0.00 14 1007.7
20260509025017 90 0.0 2.0 0.00 0.00 0.00 14 1007.8
20260509024017 91 0.0 2.0 0.00 0.00 0.00 14 1007.4
20260509023017 91 0 1.0 4.0 0.00 0.00 0.00 13 1007.5
20260509022017 91 0 1.0 5.0 0.00 0.00 0.00 13 1007.4
20260509021016 91 0 1.0 3.0 0.00 0.00 0.00 13 1006.9
20260509020018 92 0 1.0 5.0 0.00 0.00 0.00 13 1007.0